Weather History for Manchester, NH

Change the Weather History Date:

Sunday, December 9, 2012

  Actual Average Record
Temperature  
Mean Temperature 40 °F -  
Max Temperature 46 °F 36 °F 58 °F (1951)
Min Temperature 33 °F 18 °F -7 °F (1949)
Degree Days  
Heating Degree Days 26    
Moisture  
Dew Point 32 °F    
Average Humidity 81    
Maximum Humidity 100    
Minimum Humidity 44    
Precipitation  
Precipitation 0.04 in - - ()
Sea Level Pressure  
Sea Level Pressure 30.16 in    
Wind  
Wind Speed 2 mph (NNW)    
Max Wind Speed 10 mph    
Max Gust Speed -    
Visibility 7 miles    
Events Fog , Rain    
Averages and records for this station are not official NWS values.
T = Trace of Precipitation, MM = Missing Value Source: NWS Daily Summary

Daily Weather History Graph

Daily Weather History Graph

Search for Another Location

Airport:

Trip Planner

Search our weather history database for the weather conditions in past years. The results will help you decide how hot, cold, wet, or windy it might be!

Date:

Astronomy

Dec. 09, 2012 Rise Set
Actual Time 7:05 AM EST 4:11 PM EST
Civil Twilight 6:33 AM EST 4:43 PM EST
Nautical Twilight 5:57 AM EST 5:18 PM EST
Astronomical Twilight 5:23 AM EST 5:53 PM EST
Moon 2:30 AM EST (12/9) 1:20 PM EST (12/9)
Length of Visible Light 10h 10m
Length of Day
9h 05m
Waning Crescent, 19% of the Moon is Illuminated
Dec 9
Waning Crescent
Dec 13
New
Dec 20
First Quarter
Dec 28
Full
Jan 4
Last Quarter

Hourly Weather History & Observations

Time (EST) Temp. Windchill Dew Point Humidity Pressure Visibility Wind Dir Wind Speed Gust Speed Precip Events Conditions
12:17 AM 37.4 °F - 37.4 °F 100% 29.93 in 0.2 mi Calm Calm - N/A Fog Fog
12:53 AM 37.9 °F - 37.0 °F 97% 30.00 in 0.2 mi Calm Calm - N/A Fog Fog
12:57 AM 37.4 °F 34.9 °F 37.4 °F 100% 29.95 in 0.5 mi South 3.5 mph - N/A Fog Fog
1:11 AM 37.4 °F - 35.6 °F 93% 29.96 in 0.2 mi Calm Calm - N/A Fog Fog
1:34 AM 37.4 °F 34.9 °F 35.6 °F 93% 29.97 in 0.2 mi SE 3.5 mph - N/A Fog Fog
1:46 AM 37.4 °F - 35.6 °F 93% 29.98 in 0.5 mi Calm Calm - N/A Fog Fog
1:53 AM 37.0 °F - 36.0 °F 96% 30.03 in 0.5 mi Calm Calm - N/A Fog Fog
2:24 AM 35.6 °F - 35.6 °F 100% 29.99 in 1.0 mi Calm Calm - N/A   Scattered Clouds
2:53 AM 34.0 °F - 32.0 °F 92% 30.06 in 1.0 mi Calm Calm - N/A   Mostly Cloudy
3:00 AM 33.8 °F - 33.8 °F 100% 30.01 in 0.8 mi Calm Calm - N/A   Clear
3:29 AM 33.8 °F - 32.0 °F 93% 30.02 in 4.0 mi Calm Calm - N/A   Clear
3:53 AM 34.0 °F - 33.1 °F 96% 30.08 in 6.0 mi Calm Calm - N/A   Clear
4:53 AM 36.0 °F 33.3 °F 34.0 °F 93% 30.11 in 10.0 mi SW 3.5 mph - N/A   Clear
5:53 AM 39.9 °F 37.8 °F 35.1 °F 83% 30.15 in 10.0 mi SW 3.5 mph - N/A   Clear
6:53 AM 37.4 °F 33.8 °F 33.8 °F 87% 30.14 in 10.0 mi West 4.6 mph - N/A   Clear
7:53 AM 37.0 °F 32.4 °F 33.1 °F 86% 30.24 in 10.0 mi NNW 5.8 mph - N/A   Clear
8:53 AM 39.9 °F 36.7 °F 34.0 °F 79% 30.28 in 10.0 mi North 4.6 mph - N/A   Clear
9:53 AM 39.9 °F 33.4 °F 30.9 °F 70% 30.29 in 10.0 mi NNW 10.4 mph - N/A   Clear
10:53 AM 41.0 °F 36.4 °F 30.0 °F 65% 30.29 in 10.0 mi NNW 6.9 mph - N/A   Clear
11:53 AM 42.1 °F 37.1 °F 30.0 °F 62% 30.26 in 10.0 mi NNW 8.1 mph - N/A   Clear
12:53 PM 44.1 °F - 28.9 °F 55% 30.27 in 10.0 mi Calm Calm - N/A   Clear
1:53 PM 46.0 °F 41.4 °F 26.1 °F 46% 30.27 in 10.0 mi North 9.2 mph - N/A   Clear
2:53 PM 45.0 °F 41.2 °F 24.1 °F 44% 30.29 in 10.0 mi NNE 6.9 mph - N/A   Clear
3:53 PM 43.0 °F - 25.0 °F 49% 30.29 in 10.0 mi Calm Calm - N/A   Clear
4:53 PM 36.0 °F - 28.0 °F 73% 30.31 in 10.0 mi Calm Calm - N/A   Clear
5:53 PM 36.0 °F 33.3 °F 28.0 °F 73% 30.32 in 10.0 mi Variable 3.5 mph - N/A   Scattered Clouds
6:53 PM 35.1 °F - 28.9 °F 78% 30.33 in 10.0 mi Calm Calm - N/A   Mostly Cloudy
7:53 PM 36.0 °F 33.3 °F 28.9 °F 76% 30.31 in 10.0 mi NNW 3.5 mph - N/A   Overcast
8:53 PM 36.0 °F - 30.0 °F 79% 30.29 in 10.0 mi Calm Calm - N/A   Overcast
9:53 PM 37.0 °F - 30.9 °F 79% 30.27 in 10.0 mi Calm Calm - N/A   Overcast
10:53 PM 37.0 °F 34.5 °F 32.0 °F 82% 30.24 in 9.0 mi East 3.5 mph - 0.00 in Rain Light Rain
11:53 PM 37.9 °F 35.5 °F 33.1 °F 83% 30.22 in 7.0 mi East 3.5 mph - 0.04 in Rain Light Ice Pellets